Regional Weather Roundup
Issued by NWS Albany, NY

Home | Current Version | Previous Version | Text Only | Print | Product List | Glossary On
Versions: 1 2 3 4 5 6 7 8 9 10 11 12 13 14 15 16 17 18 19 20 21 22 23 24 25 26 27 28
000
ASUS41 KALY 231010
RWRALY

NEW YORK STATE HOURLY WEATHER ROUNDUP
NATIONAL WEATHER SERVICE ALBANY NY
500 AM EST THU FEB 23 2017

NOTE: "FAIR" INDICATES FEW OR NO CLOUDS BELOW 12,000 FEET WITH NO
SIGNIFICANT WEATHER AND/OR NO OBSTRUCTIONS TO VISIBILITY.

NYZ032-033-038>043-046>054-057>066-NYZ062>081-082-084-231100-
EAST


CITY           SKY/WX    TMP DP  RH WIND       PRES   REMARKS
ALBANY         PTCLDY    45  36  70 S7        29.83F
GLENS FALLS    CLOUDY    38  32  79 CALM      29.83R
POUGHKEEPSIE   CLEAR     34  32  92 CALM      29.85S
NEWBURGH       PTCLDY    39  37  93 CALM      29.86F
MONTGOMERY     CLEAR     33  31  92 CALM      29.84S FOG
WHITE PLAINS   CLEAR     38  35  89 CALM      29.86S
ISLIP          FOG       37  37 100 E3        29.89S VSB 1/2
NEW YORK CITY  PTCLDY    42  38  85 NE6       29.87F
CENTRAL PARK   CLEAR     46  41  82 NE3       29.90S
$$

NYZ005>009-017-018-044>046-055-056-231100-
CENTRAL


CITY           SKY/WX    TMP DP  RH WIND       PRES   REMARKS
FULTON         CLOUDY    47  40  76 SE5       29.74F
SYRACUSE       CLOUDY    46  41  82 E5        29.74F
ROME           CLOUDY    42  38  85 SE6       29.79S
ELMIRA         FOG       35  34  96 CALM      29.80R VSB 1/2
BINGHAMTON     MOCLDY    46  39  76 SW7       29.80R
MONTICELLO     CLEAR     34  34 100 CALM      29.85S
$$

NYZ026>034-041>043-087-231100-
NORTH


CITY           SKY/WX    TMP DP  RH WIND       PRES   REMARKS
WATERTOWN      CLOUDY    54  47  77 S7        29.70F
FORT DRUM      NOT AVBL
OGDENSBURG     MOCLDY    49  44  84 S5        29.69S
MASSENA        CLOUDY    38  34  85 CALM      29.71F
SARANAC LAKE   MOCLDY    35  33  92 CALM      29.73F
PLATTSBURGH    CLEAR     32  29  88 CALM      29.74F
$$

NYZ001>004-010>016-019>021-085-231100-
WEST


CITY           SKY/WX    TMP DP  RH WIND       PRES   REMARKS
NIAGARA FALLS  MOCLDY    56  49  77 S13       29.67F
BUFFALO        MOCLDY    55  49  80 S12       29.69F
DUNKIRK        CLOUDY    57  50  77 S16G24    29.71S
JAMESTOWN        N/A     52  46  82 S9        29.75S
WELLSVILLE     MOCLDY    53  47  79 SW9       29.78F
ROCHESTER      CLOUDY    54  48  80 S9        29.71F
PENN YAN       CLEAR     48  38  68 W3        29.76S
$$

             KEY
       WCI = WIND CHILL INDEX
       VSB = VISIBILITY
       HX  = HEAT INDEX
$$




USA.gov is the U.S. government's official web portal to all federal, state and local government web resources and services.